When you browse on this site, cookies collect data to enhance your experience and personalize the content and advertising you see.
Visit our Privacy Policy to learn more. By continuing to use the site, you agree to this use of cookies and data.
  • In Hungary
  • List of Countries
  • For 7 days
  • Water Temperature
  • Weather Map
  • News
  • Weather Widgets
  • user-avatar
    Login

    Hourly Weather Lobovo

    Today, 23 February, Sunday

    Time Temperature Precipitation Wind Pressure Humidity
    00:00 0°C° 0.7 mm 7 mps 734 mmHg 87%
    01:00 +1°C° 0.7 mm 6 mps 734 mmHg 82%
    02:00 +2°C° 0 mm 5 mps 734 mmHg 78%
    03:00 +1°C° 0 mm 5 mps 733 mmHg 78%
    04:00 +1°C° 0 mm 5 mps 733 mmHg 78%
    05:00 -1°C° 0 mm 6 mps 733 mmHg 79%
    06:00 -1°C° 0 mm 6 mps 733 mmHg 79%
    07:00 -1°C° 0 mm 6 mps 734 mmHg 79%
    08:00 -1°C° 0 mm 6 mps 734 mmHg 79%
    09:00 +1°C° 0 mm 6 mps 734 mmHg 76%
    10:00 +1°C° 0 mm 6 mps 734 mmHg 73%
    11:00 +2°C° 0 mm 6 mps 734 mmHg 69%
    12:00 +2°C° 0.1 mm 6 mps 734 mmHg 74%
    13:00 0°C° 0.1 mm 7 mps 734 mmHg 79%
    14:00 +2°C° 0 mm 7 mps 733 mmHg 83%
    15:00 +2°C° 0.1 mm 6 mps 733 mmHg 82%
    16:00 +1°C° 0.1 mm 6 mps 733 mmHg 82%
    17:00 +1°C° 0.1 mm 6 mps 733 mmHg 81%
    18:00 +1°C° 0.1 mm 6 mps 733 mmHg 82%
    19:00 +1°C° 0.1 mm 6 mps 733 mmHg 82%
    20:00 +1°C° 0.1 mm 5 mps 733 mmHg 82%
    21:00 +1°C° 0 mm 5 mps 733 mmHg 83%
    22:00 +1°C° 0 mm 4 mps 733 mmHg 84%
    23:00 0°C° 0 mm 4 mps 732 mmHg 84%

    Tomorrow, 24 February, Monday

    Time Temperature Precipitation Wind Pressure Humidity
    00:00 0°C° 0 mm 4 mps 732 mmHg 85%
    01:00 0°C° 0 mm 4 mps 732 mmHg 86%
    02:00 0°C° 0 mm 4 mps 732 mmHg 87%
    03:00 0°C° 0 mm 4 mps 732 mmHg 88%
    04:00 0°C° 0 mm 4 mps 732 mmHg 89%
    05:00 +1°C° 0 mm 3 mps 732 mmHg 90%
    06:00 +1°C° 0 mm 3 mps 733 mmHg 89%
    07:00 +1°C° 0 mm 3 mps 734 mmHg 87%
    08:00 +1°C° 0 mm 3 mps 735 mmHg 85%
    09:00 0°C° 0 mm 4 mps 735 mmHg 79%
    10:00 +1°C° 0 mm 4 mps 736 mmHg 73%
    11:00 +1°C° 0 mm 5 mps 736 mmHg 67%
    12:00 +1°C° 0 mm 5 mps 737 mmHg 63%
    13:00 +1°C° 0 mm 6 mps 737 mmHg 60%
    14:00 +1°C° 0 mm 6 mps 738 mmHg 56%
    15:00 +1°C° 0 mm 5 mps 739 mmHg 58%
    16:00 0°C° 0 mm 4 mps 739 mmHg 60%
    17:00 0°C° 0 mm 4 mps 740 mmHg 62%
    18:00 -1°C° 0 mm 4 mps 740 mmHg 64%
    19:00 -1°C° 0 mm 4 mps 741 mmHg 67%
    20:00 -2°C° 0 mm 4 mps 741 mmHg 70%
    21:00 -2°C° 0 mm 4 mps 741 mmHg 72%
    22:00 -1°C° 0 mm 3 mps 742 mmHg 74%
    23:00 -2°C° 0 mm 3 mps 742 mmHg 76%

    Day after tomorrow, 25 February, Tuesday

    Time Temperature Precipitation Wind Pressure Humidity
    00:00 -2°C° 0 mm 3 mps 742 mmHg 77%
    01:00 -2°C° 0 mm 2 mps 742 mmHg 78%
    02:00 -2°C° 0 mm 2 mps 742 mmHg 79%
    03:00 -2°C° 0 mm 2 mps 742 mmHg 80%
    04:00 -2°C° 0 mm 2 mps 742 mmHg 82%
    05:00 -3°C° 0 mm 2 mps 741 mmHg 84%
    06:00 -2°C° 0 mm 2 mps 741 mmHg 83%
    07:00 -2°C° 0 mm 2 mps 741 mmHg 81%
    08:00 -2°C° 0 mm 2 mps 740 mmHg 80%
    09:00 -1°C° 0 mm 2 mps 740 mmHg 73%
    10:00 0°C° 0 mm 3 mps 739 mmHg 66%
    11:00 0°C° 0 mm 4 mps 738 mmHg 59%
    12:00 0°C° 0 mm 4 mps 738 mmHg 58%
    13:00 +1°C° 0 mm 4 mps 737 mmHg 57%
    14:00 +1°C° 0 mm 4 mps 737 mmHg 56%
    15:00 0°C° 0.1 mm 4 mps 736 mmHg 69%
    16:00 -1°C° 0.1 mm 5 mps 735 mmHg 82%
    17:00 -1°C° 0.1 mm 5 mps 734 mmHg 95%
    18:00 -1°C° 0.4 mm 5 mps 733 mmHg 95%
    19:00 -1°C° 0.4 mm 5 mps 732 mmHg 96%
    20:00 -1°C° 0.4 mm 4 mps 732 mmHg 96%
    21:00 0°C° 0.3 mm 4 mps 731 mmHg 96%
    22:00 0°C° 0.3 mm 4 mps 730 mmHg 96%
    23:00 +1°C° 0.3 mm 3 mps 730 mmHg 97%

    26 February, Wednesday

    Time Temperature Precipitation Wind Pressure Humidity
    00:00 +1°C° 0.1 mm 3 mps 730 mmHg 95%
    01:00 0°C° 0.1 mm 3 mps 730 mmHg 93%
    02:00 0°C° 0.1 mm 3 mps 730 mmHg 92%
    03:00 0°C° 0 mm 3 mps 729 mmHg 90%
    04:00 -1°C° 0 mm 4 mps 729 mmHg 88%
    05:00 -1°C° 0 mm 4 mps 729 mmHg 86%
    06:00 -1°C° 0 mm 4 mps 729 mmHg 85%
    07:00 -1°C° 0 mm 4 mps 729 mmHg 84%
    08:00 -1°C° 0 mm 4 mps 729 mmHg 83%
    09:00 -1°C° 0 mm 5 mps 729 mmHg 80%
    10:00 0°C° 0 mm 5 mps 729 mmHg 78%
    11:00 0°C° 0 mm 5 mps 729 mmHg 75%
    12:00 0°C° 0 mm 5 mps 729 mmHg 74%
    13:00 0°C° 0 mm 5 mps 729 mmHg 73%
    14:00 0°C° 0 mm 5 mps 729 mmHg 71%
    15:00 0°C° 0 mm 5 mps 729 mmHg 72%
    16:00 0°C° 0 mm 5 mps 728 mmHg 73%
    17:00 0°C° 0 mm 5 mps 728 mmHg 74%
    18:00 0°C° 0 mm 5 mps 729 mmHg 75%
    19:00 -1°C° 0 mm 5 mps 729 mmHg 77%
    20:00 -1°C° 0 mm 5 mps 729 mmHg 78%
    21:00 -1°C° 0.1 mm 5 mps 729 mmHg 82%
    22:00 -2°C° 0.1 mm 6 mps 730 mmHg 86%
    23:00 -2°C° 0.1 mm 6 mps 730 mmHg 90%

    27 February, Thursday

    Time Temperature Precipitation Wind Pressure Humidity
    00:00 -2°C° 0.2 mm 6 mps 730 mmHg 90%
    01:00 -2°C° 0.2 mm 5 mps 731 mmHg 90%
    02:00 -2°C° 0.2 mm 5 mps 732 mmHg 90%
    03:00 -3°C° 0.1 mm 4 mps 732 mmHg 89%
    04:00 -3°C° 0.1 mm 4 mps 733 mmHg 87%
    05:00 -4°C° 0.1 mm 4 mps 734 mmHg 85%
    06:00 -4°C° 0 mm 4 mps 734 mmHg 84%
    07:00 -4°C° 0 mm 3 mps 735 mmHg 82%
    08:00 -5°C° 0 mm 3 mps 736 mmHg 81%
    09:00 -4°C° 0 mm 3 mps 736 mmHg 78%
    10:00 -4°C° 0 mm 3 mps 737 mmHg 75%
    11:00 -2°C° 0 mm 3 mps 737 mmHg 72%
    12:00 -2°C° 0 mm 3 mps 738 mmHg 70%
    13:00 -2°C° 0 mm 3 mps 738 mmHg 68%
    14:00 -2°C° 0 mm 3 mps 738 mmHg 66%
    15:00 -2°C° 0 mm 2 mps 738 mmHg 67%
    16:00 -2°C° 0 mm 2 mps 738 mmHg 67%
    17:00 -3°C° 0 mm 2 mps 738 mmHg 68%
    18:00 -3°C° 0 mm 2 mps 738 mmHg 71%
    19:00 -2°C° 0 mm 1 mps 739 mmHg 74%
    20:00 -2°C° 0 mm 1 mps 739 mmHg 77%
    21:00 -3°C° 0 mm 1 mps 739 mmHg 77%
    22:00 -5°C° 0 mm 2 mps 739 mmHg 77%
    23:00 -5°C° 0 mm 2 mps 739 mmHg 78%

    28 February, Friday

    Time Temperature Precipitation Wind Pressure Humidity
    00:00 -5°C° 0 mm 2 mps 739 mmHg 78%
    01:00 -5°C° 0 mm 2 mps 738 mmHg 78%
    02:00 -5°C° 0 mm 2 mps 738 mmHg 78%
    03:00 -5°C° 0 mm 2 mps 738 mmHg 78%
    04:00 -5°C° 0 mm 2 mps 738 mmHg 77%
    05:00 -5°C° 0 mm 2 mps 738 mmHg 76%
    06:00 -5°C° 0 mm 2 mps 738 mmHg 76%
    07:00 -5°C° 0 mm 2 mps 738 mmHg 77%
    08:00 -5°C° 0 mm 2 mps 738 mmHg 78%
    09:00 -6°C° 0 mm 3 mps 738 mmHg 72%
    10:00 -5°C° 0 mm 3 mps 738 mmHg 67%
    11:00 -4°C° 0 mm 3 mps 738 mmHg 61%
    12:00 -4°C° 0 mm 3 mps 738 mmHg 58%
    13:00 -3°C° 0 mm 4 mps 738 mmHg 55%
    14:00 -3°C° 0 mm 4 mps 738 mmHg 52%
    15:00 -2°C° 0.1 mm 3 mps 738 mmHg 55%
    16:00 -2°C° 0.1 mm 3 mps 738 mmHg 57%
    17:00 -4°C° 0.1 mm 3 mps 738 mmHg 59%
    18:00 -4°C° 0 mm 3 mps 738 mmHg 63%
    19:00 -4°C° 0 mm 3 mps 739 mmHg 67%
    20:00 -5°C° 0 mm 3 mps 739 mmHg 71%
    21:00 -5°C° 0 mm 3 mps 739 mmHg 72%
    22:00 -5°C° 0 mm 3 mps 739 mmHg 73%
    23:00 -5°C° 0 mm 3 mps 739 mmHg 74%
    Show more